This is the latest recevied weather packets stored in our database for station/object KQ4DLB-13. If no packets are shown the sender has not sent any weather packets the latest 10 day(s).
| Time | Temp. | Humidity | Pressure | Rain* | Wind** | Luminosity | Snow |
|---|---|---|---|---|---|---|---|
| 1777521002 | 15° C | 74% | 990.1 hPa | 0 mm | - | - | - |
| 1777520703 | 15° C | 72% | 990 hPa | 0 mm | - | - | - |
| 1777520403 | 15° C | 72% | 989.9 hPa | 0 mm | - | - | - |
| 1777520102 | 15° C | 72% | 989.8 hPa | 0 mm | - | - | - |
| 1777519802 | 15° C | 73% | 989.9 hPa | 0 mm | - | - | - |
| 1777519502 | 15° C | 73% | 989.9 hPa | 0 mm | - | - | - |
| 1777519202 | 15° C | 72% | 990 hPa | 0 mm | - | - | - |
| 1777518903 | 15.56° C | 72% | 989.9 hPa | 0 mm | - | - | - |
| 1777518602 | 15.56° C | 72% | 989.6 hPa | 0 mm | - | - | - |
| 1777518302 | 15.56° C | 71% | 989.5 hPa | 0 mm | - | - | - |
| 1777518002 | 15.56° C | 73% | 989.4 hPa | 0 mm | - | - | - |
| 1777517702 | 15.56° C | 75% | 989.5 hPa | 0 mm | - | - | - |
| 1777517402 | 15.56° C | 74% | 989.7 hPa | 0 mm | - | - | - |
| 1777517102 | 15° C | 76% | 990 hPa | 0 mm | - | - | - |
| 1777516802 | 15° C | 79% | 990.3 hPa | 0 mm | - | - | - |
| 1777516502 | 15° C | 82% | 990.4 hPa | 0 mm | - | - | - |
| 1777516202 | 15° C | 82% | 990.5 hPa | 0 mm | - | - | - |
| 1777515902 | 15° C | 82% | 990.4 hPa | 0 mm | - | - | - |
| 1777515602 | 15° C | 83% | 990.2 hPa | 0 mm | - | - | - |
| 1777515303 | 15° C | 83% | 990 hPa | 0 mm | - | - | - |
| 1777515002 | 15° C | 85% | 989.9 hPa | 0 mm | - | - | - |
| 1777514703 | 15° C | 86% | 989.7 hPa | 0 mm | - | - | - |
| 1777514402 | 15° C | 87% | 989.8 hPa | 0 mm | - | - | - |
| 1777514102 | 15° C | 87% | 990 hPa | 0 mm | - | - | - |
| 1777513802 | 15° C | 88% | 990 hPa | 0 mm | - | - | - |
* Rain latest hour (hover to see other rain measurements)
** Current wind speed in m/s (hover to see current wind gust speed)